Location: Prague
(50.0830°N, 14.4670°E)
Time: 10:57:35
(UTC+01:00)

Oscar 11 - Pass Details

Date: 04 December 2021
Orbit: 611 x 625 km, 97.6° (Epoch: 23 January)

Event Time Altitude Azimuth Distance (km) Brightness Sun altitude
Rises 04:18:40 0° 28° (NNE) 2,919 10.9 -31.8°
Reaches altitude 10° 04:21:39 10° 50° (NE) 2,003 10.2 -31.3°
Maximum altitude 04:24:23 16° 89° (E) 1,624 10.0 -30.8°
Drops below altitude 10° 04:27:05 10° 128° (SE) 1,987 10.2 -30.4°
Sets 04:30:01 0° 150° (SSE) 2,884 10.9 -29.9°
